sat.trackr.live / text

‹ back to catalog

STARLINK-31780

NORAD 59432 · 2024-065M

PAYLOAD ACTIVE UNKNOWN

§ Identity

Operator
Country
US
Launch date
2024-04-07
Launch site
AFWTR
Launch vehicle
Mass (kg)
RCS (m²)

Purposes: comms

External: N2YO · Heavens-Above · Gunter

§ Orbital elements

Epoch: 2026-09-21T19:15:52.976736Z

Period
93.85 min
Inclination
53.1581°
Eccentricity
0.0001162
Mean motion
15.34394231 rev/d
Perigee alt
461.9 km
Apogee alt
463.5 km
Semi-major
6,840.9 km
B*
-1.2386e-5
RAAN
87.3105°
Arg perigee
87.0985°
Mean anomaly
273.0151°
Rev number
13,900

§ Raw data

STARLINK-317801 59432U 24065M   26264.80269649 -.00000795  00000+0 -12386-4 0  99902 59432  53.1581  87.3105 0001162  87.0985 273.0151 15.34394231139006

JSON: /api/v1/satellites/59432 · /tle

For live sub-satellite position, see the globe view (requires WebGL).

§ Visibility from observer

Set your observer location to see the next 7 days of passes ≥ 10°. The values pass through the URL so the page stays shareable.

No JS? Fill the form by hand. The geolocation button needs JavaScript.